Date String (YYYY-MM-DD hh:mm:ss) UTC,Instrument flags,absolute air pressure of the measurement (hPa),sample flow rate (lpm),inlet stack bypass flow (lpm),air temperature of the measurement (°C),ambient temperature measured by the external sensor (°C),aerosol sample conditioner tube jacket temperature (°C),OPC LED temperature (°C),internal box temperature (°C),relative humidity of the measurement (%),span deviation,mass concentration of particles derived from Lorenz-Mie calculation of OPC scattering (μg/m³),mass concentration of particles derived from Lorenz-Mie calculation of OPC scattering (μg/m³),mass concentration of particles derived from Lorenz-Mie calculation of OPC scattering (μg/m³)
DateTimeUTC,F1_M11,P_M11,Q1_M11,Q2_M11,T1_M11,T2_M11,T3_M11,T4_M11,T5_M11,U1_M11,ZSPAN_M11,X0_M11,X2_M11,X1_M11
2024-04-20 04:00:00,SystemResetWarning,0837.0,5.00,000.00,019.5,018.9,000.0,028.0,021.3,023.6,0000.0,0008.77,0006.06,0005.61
2024-04-20 04:01:00,SystemResetWarning,0837.0,5.00,000.00,019.5,018.9,000.0,028.0,021.3,023.6,0000.0,0008.84,0006.08,0005.63
2024-04-20 04:02:00,SystemResetWarning,0837.0,5.00,000.00,019.5,018.9,000.0,028.0,021.3,023.6,0000.0,0008.77,0006.09,0005.66
2024-04-20 04:03:00,SystemResetWarning,0836.9,5.00,000.00,019.5,018.9,000.0,028.0,021.3,023.6,0000.0,0008.89,0006.15,0005.70
2024-04-20 04:04:00,SystemResetWarning,0836.9,5.00,000.00,019.5,018.9,000.0,028.0,021.3,023.6,0000.0,0008.94,0006.18,0005.72
2024-04-20 04:05:00,SystemResetWarning,0837.0,5.00,000.00,019.5,018.9,000.0,028.0,021.3,023.6,0000.0,0008.93,0006.18,0005.73
2024-04-20 04:06:00,SystemResetWarning,0836.9,4.99,000.00,019.5,018.9,000.0,028.0,021.2,023.6,0000.0,0008.91,0006.17,0005.74
2024-04-20 04:07:00,SystemResetWarning,0836.9,4.99,000.00,019.5,018.9,000.0,028.0,021.2,023.5,0000.0,0009.02,0006.21,0005.75
2024-04-20 04:08:00,SystemResetWarning,0836.9,4.99,000.00,019.5,018.8,000.0,028.0,021.2,023.5,0000.0,0008.99,0006.19,0005.73
2024-04-20 04:09:00,SystemResetWarning,0837.0,5.00,000.00,019.5,018.8,000.0,028.0,021.2,023.5,0000.0,0008.84,0006.12,0005.71
2024-04-20 04:10:00,SystemResetWarning,0837.0,5.00,000.00,019.5,018.8,000.0,028.0,021.2,023.5,0000.0,0008.86,0006.12,0005.69
2024-04-20 04:11:00,SystemResetWarning,0837.0,5.01,000.00,019.5,018.8,000.0,028.0,021.2,023.5,0000.0,0008.82,0006.10,0005.69
2024-04-20 04:12:00,SystemResetWarning,0837.0,5.00,000.00,019.5,018.8,000.0,028.0,021.2,023.5,0000.0,0008.73,0006.10,0005.68
2024-04-20 04:13:00,SystemResetWarning,0836.9,5.00,000.00,019.5,018.8,000.0,028.0,021.2,023.5,0000.0,0008.74,0006.06,0005.64
2024-04-20 04:14:00,SystemResetWarning,0837.0,5.00,000.00,019.4,018.8,000.0,028.0,021.2,023.5,0000.0,0008.57,0005.96,0005.58
2024-04-20 04:15:00,SystemResetWarning,0836.9,4.99,000.00,019.4,018.8,000.0,028.0,021.2,023.4,0000.0,0008.46,0005.89,0005.53
2024-04-20 04:16:00,SystemResetWarning,0837.0,5.00,000.00,019.4,018.8,000.0,028.0,021.2,023.4,0000.2,0008.37,0005.81,0005.47
2024-04-20 04:17:00,SystemResetWarning,0836.9,4.99,000.00,019.4,018.8,000.0,028.0,021.2,023.3,0002.6,0008.36,0005.75,0005.39
2024-04-20 04:18:00,SystemResetWarning,0836.9,4.99,000.00,019.4,018.7,000.0,028.0,021.2,023.3,0002.6,0008.25,0005.65,0005.30
2024-04-20 04:19:00,SystemResetWarning,0836.9,5.00,000.00,019.4,018.7,000.0,028.0,021.2,023.3,0001.6,0008.19,0005.60,0005.25
2024-04-20 04:20:00,SystemResetWarning,0836.9,5.01,000.00,019.4,018.8,000.0,028.0,021.2,023.2,0001.4,0008.16,0005.57,0005.21
2024-04-20 04:21:00,SystemResetWarning,0836.9,5.01,000.00,019.4,018.8,000.0,028.0,021.2,023.2,0000.7,0008.18,0005.56,0005.18
2024-04-20 04:22:00,SystemResetWarning,0837.0,5.00,000.00,019.4,018.7,000.0,028.0,021.1,023.1,0000.4,0008.24,0005.55,0005.13
2024-04-20 04:23:00,SystemResetWarning,0837.0,5.00,000.00,019.4,018.7,000.0,028.0,021.1,023.2,0000.2,0008.20,0005.51,0005.08
2024-04-20 04:24:00,SystemResetWarning,0837.0,5.00,000.00,019.4,018.7,000.0,028.0,021.1,023.2,0000.0,0008.07,0005.44,0005.03
2024-04-20 04:25:00,SystemResetWarning,0836.9,5.00,000.00,019.4,018.7,000.0,028.0,021.1,023.1,0000.0,0008.10,0005.44,0005.02
2024-04-20 04:26:00,SystemResetWarning,0836.9,4.99,000.00,019.4,018.7,000.0,028.0,021.1,023.1,0000.0,0008.08,0005.42,0004.99
2024-04-20 04:27:00,SystemResetWarning,0837.0,5.00,000.00,019.4,018.7,000.0,027.9,021.1,023.1,0000.0,0008.09,0005.43,0005.00
2024-04-20 04:28:00,SystemResetWarning,0837.0,5.00,000.00,019.4,018.7,000.0,027.9,021.1,023.1,0000.0,0008.01,0005.42,0005.00
2024-04-20 04:29:00,SystemResetWarning,0837.0,5.00,000.00,019.4,018.7,000.0,027.9,021.1,023.1,0000.0,0007.96,0005.42,0005.02
2024-04-20 04:30:00,SystemResetWarning,0837.0,5.00,000.00,019.4,018.7,000.0,027.9,021.1,023.1,0000.0,0007.93,0005.43,0005.04
2024-04-20 04:31:00,SystemResetWarning,0837.0,5.00,000.00,019.4,018.7,000.0,027.9,021.1,023.1,0000.0,0007.91,0005.43,0005.05
2024-04-20 04:32:00,SystemResetWarning,0837.0,5.00,000.00,019.4,018.7,000.0,027.9,021.1,023.1,0000.0,0007.96,0005.44,0005.04
2024-04-20 04:33:00,SystemResetWarning,0837.0,5.00,000.00,019.4,018.7,000.0,027.9,021.1,023.1,0000.0,0007.89,0005.41,0005.04
2024-04-20 04:34:00,SystemResetWarning,0836.9,5.00,000.00,019.4,018.7,000.0,027.9,021.1,023.1,0000.0,0007.85,0005.39,0005.03
2024-04-20 04:35:00,SystemResetWarning,0836.9,5.00,000.00,019.3,018.7,000.0,027.9,021.1,023.1,0000.0,0007.93,0005.42,0005.03
2024-04-20 04:36:00,SystemResetWarning,0837.0,5.00,000.00,019.3,018.7,000.0,027.9,021.1,023.1,0000.0,0007.95,0005.43,0005.03
2024-04-20 04:37:00,SystemResetWarning,0837.0,5.00,000.00,019.3,018.7,000.0,027.9,021.1,023.1,0000.0,0007.91,0005.43,0005.04
2024-04-20 04:38:00,SystemResetWarning,0837.0,5.00,000.00,019.3,018.7,000.0,027.9,021.1,023.1,0000.0,0008.05,0005.44,0005.04
2024-04-20 04:39:00,SystemResetWarning,0837.0,5.00,000.00,019.3,018.7,000.0,027.9,021.1,023.1,0000.0,0008.40,0005.48,0005.06
2024-04-20 04:40:00,SystemResetWarning,0837.0,5.00,000.00,019.3,018.7,000.0,027.9,021.1,023.1,0000.0,0008.43,0005.48,0005.06
2024-04-20 04:41:00,SystemResetWarning,0837.0,5.00,000.00,019.3,018.8,000.0,027.9,021.1,023.1,0000.0,0008.39,0005.47,0005.07
2024-04-20 04:42:00,SystemResetWarning,0837.1,5.00,000.00,019.3,018.7,000.0,027.9,021.1,023.1,0000.2,0008.45,0005.49,0005.08
2024-04-20 04:43:00,SystemResetWarning,0837.0,5.00,000.00,019.3,018.7,000.0,027.9,021.1,023.1,0000.4,0008.50,0005.49,0005.08
2024-04-20 04:44:00,SystemResetWarning,0837.0,5.00,000.00,019.3,018.7,000.0,027.9,021.1,023.0,0000.0,0008.56,0005.49,0005.08
2024-04-20 04:45:00,SystemResetWarning,0837.0,5.00,000.00,019.3,018.7,000.0,027.9,021.1,023.0,0000.0,0008.55,0005.49,0005.08
2024-04-20 04:46:00,SystemResetWarning,0837.0,4.99,000.00,019.3,018.7,000.0,027.9,021.1,023.0,0001.3,0008.56,0005.49,0005.07
2024-04-20 04:47:00,SystemResetWarning,0836.9,5.00,000.00,019.3,018.7,000.0,027.9,021.1,023.0,0001.7,0008.57,0005.48,0005.07
2024-04-20 04:48:00,SystemResetWarning,0837.0,5.00,000.00,019.3,018.7,000.0,027.9,021.1,023.0,0001.7,0008.67,0005.50,0005.05
2024-04-20 04:49:00,SystemResetWarning,0837.0,5.00,000.00,019.3,018.7,000.0,027.9,021.1,023.0,0001.7,0008.90,0005.48,0005.05
2024-04-20 04:50:00,SystemResetWarning,0836.9,5.00,000.00,019.3,018.8,000.0,027.9,021.1,023.0,0001.2,0008.64,0005.49,0005.06
2024-04-20 04:51:00,SystemResetWarning,0836.9,5.00,000.00,019.3,018.8,000.0,027.9,021.1,023.0,0000.8,0008.71,0005.54,0005.07
2024-04-20 04:52:00,SystemResetWarning,0836.9,5.00,000.00,019.3,018.7,000.0,027.9,021.1,023.8,0000.3,0008.83,0005.56,0005.07
2024-04-20 04:53:00,SystemResetWarning,0836.9,5.00,000.00,019.3,018.8,000.0,027.9,021.1,023.9,-000.4,0008.96,0005.58,0005.06
2024-04-20 04:54:00,SystemResetWarning,0837.0,5.00,000.00,019.3,018.8,000.0,027.9,021.1,023.3,-000.7,0008.92,0005.57,0005.06
2024-04-20 04:55:00,SystemResetWarning,0837.0,5.00,000.00,019.3,018.8,000.0,027.9,021.1,023.1,-000.5,0008.81,0005.56,0005.05
2024-04-20 04:56:00,SystemResetWarning,0837.0,5.00,000.00,019.3,018.8,000.0,027.9,021.1,023.0,-000.5,0008.75,0005.53,0005.04
2024-04-20 04:57:00,SystemResetWarning,0836.9,5.00,000.00,019.3,018.8,000.0,027.9,021.1,023.0,-000.8,0008.73,0005.53,0005.04
2024-04-20 04:58:00,SystemResetWarning,0837.0,5.01,000.00,019.3,018.8,000.0,027.9,021.1,023.0,-000.0,0008.74,0005.53,0005.04
2024-04-20 04:59:00,SystemResetWarning,0837.0,5.01,000.00,019.3,018.8,000.0,027.9,021.1,023.0,0000.0,0008.70,0005.53,0005.05
